This is the latest recevied weather packets stored in our database for station/object KV9E. If no packets are shown the sender has not sent any weather packets the latest 10 day(s).
| Time | Temp. | Humidity | Pressure | Rain* | Wind** | Luminosity | Snow |
|---|---|---|---|---|---|---|---|
| 1777589688 | 14.44° C | 48% | 1013.7 hPa | 0 mm | - | 149 W/m² | - |
| 1777589386 | 14.44° C | 50% | 1013.7 hPa | 0 mm | - | 92 W/m² | - |
| 1777589083 | 14.44° C | 53% | 1013.6 hPa | 0 mm | - | 129 W/m² | - |
| 1777588779 | 13.89° C | 49% | 1013.6 hPa | 0 mm | - | 112 W/m² | - |
| 1777588475 | 13.89° C | 49% | 1013.8 hPa | 0 mm | - | 168 W/m² | - |
| 1777588170 | 14.44° C | 48% | 1013.8 hPa | 0 mm | - | 173 W/m² | - |
| 1777587866 | 14.44° C | 48% | 1013.8 hPa | 0 mm | - | 130 W/m² | - |
| 1777587562 | 15° C | 48% | 1013.7 hPa | 0 mm | - | 235 W/m² | - |
| 1777587257 | 15° C | 45% | 1013.8 hPa | 0 mm | - | 192 W/m² | - |
| 1777586953 | 15.56° C | 46% | 1013.8 hPa | 0 mm | - | 271 W/m² | - |
| 1777586649 | 15° C | 46% | 1013.7 hPa | 0 mm | - | 283 W/m² | - |
| 1777586344 | 15° C | 47% | 1013.6 hPa | 0 mm | - | 225 W/m² | - |
| 1777586043 | 15.56° C | 49% | 1014 hPa | 0 mm | - | 294 W/m² | - |
| 1777585742 | 15° C | 50% | 1013.7 hPa | 0 mm | - | 251 W/m² | - |
| 1777585437 | 15° C | 49% | 1013.5 hPa | 0 mm | - | 311 W/m² | - |
| 1777585132 | 15.56° C | 53% | 1013.6 hPa | 0 mm | - | 352 W/m² | - |
| 1777584828 | 15.56° C | 47% | 1013.7 hPa | 0 mm | - | 199 W/m² | - |
| 1777584526 | 15.56° C | 47% | 1013.6 hPa | 0 mm | - | 370 W/m² | - |
| 1777584223 | 15° C | 50% | 1013.5 hPa | 0 mm | - | 313 W/m² | - |
| 1777583922 | 15° C | 51% | 1013.5 hPa | 0 mm | - | 363 W/m² | - |
| 1777583618 | 15° C | 50% | 1013.7 hPa | 0 mm | - | 361 W/m² | - |
| 1777583316 | 15° C | 48% | 1014 hPa | 0 mm | - | 381 W/m² | - |
| 1777583011 | 15° C | 49% | 1013.7 hPa | 0 mm | - | 409 W/m² | - |
| 1777582709 | 15° C | 51% | 1014 hPa | 0 mm | - | 383 W/m² | - |
| 1777582404 | 15° C | 49% | 1014 hPa | 0 mm | - | 456 W/m² | - |
* Rain latest hour (hover to see other rain measurements)
** Current wind speed in m/s (hover to see current wind gust speed)